Theta_e
320 319 319 321 322 320 320 319 319 321 323 322 322 326 326 327 328 322 317 324 326 332 327 321 320 317 318 313 318 311 297 295 297 298 299 303 298 300 305 308 310 314 313 317 321
321 321 319 320 321 321 321 320 320 321 323 323 323 325 326 327 320 316 324 328 332 333 320 319 314 315 309 310 310 306 299 298 302 303 299 300 299 300 301 304 307 312 317 319 320
321 320 320 320 321 321 321 322 322 322 323 324 323 324 325 324 313 312 329 329 331 329 322 319 318 312 306 307 307 304 301 304 306 306 307 301 300 301 299 300 307 308 313 317 318
320 320 320 320 320 321 321 322 322 322 322 322 322 323 323 315 296 311 323 331 332 322 319 317 315 310 303 304 306 299 306 307 309 307 306 305 301 296 300 304 306 309 317 317 318
320 319 319 319 320 320 320 320 321 322 322 322 322 322 318 309 307 315 322 329 326 318 317 314 312 311 305 304 305 300 306 308 310 307 307 307 304 299 298 303 304 310 317 317 318
319 319 319 319 319 320 320 320 320 321 321 321 321 321 312 301 316 315 321 322 319 316 315 316 312 311 307 303 304 304 306 306 308 307 308 305 305 297 298 300 304 314 316 316 318
319 318 318 318 318 319 319 320 319 321 320 320 320 315 307 305 316 314 320 318 317 316 314 314 315 311 307 303 308 307 301 304 305 307 305 305 302 296 301 298 300 310 315 315 316
318 318 318 318 318 318 319 319 320 321 320 320 319 309 300 311 315 314 314 313 315 314 313 316 318 311 309 306 305 303 302 294 302 307 307 305 297 302 304 297 296 301 310 315 317
316 317 317 317 317 318 318 318 319 319 319 319 311 307 299 315 308 312 312 312 312 314 315 317 315 308 305 301 297 299 292 293 297 307 305 301 295 303 304 299 297 295 303 312 316
316 316 317 317 317 317 317 317 317 315 313 313 311 301 303 301 308 311 310 313 311 311 309 309 307 302 301 298 290 293 294 293 294 302 303 298 296 302 306 303 298 296 294 306 313
314 315 317 317 317 318 315 306 300 299 304 298 301 299 301 308 311 308 311 311 310 307 299 304 298 292 297 300 299 296 296 295 298 303 299 298 299 303 306 305 301 299 297 295 301
314 315 316 317 317 318 309 298 297 298 293 301 304 302 306 308 302 307 312 302 303 298 301 298 293 300 299 298 299 298 294 293 298 302 299 298 297 302 305 305 306 306 303 298 298
313 314 316 317 316 313 304 300 303 300 290 295 302 302 303 306 300 303 308 304 298 297 298 294 296 301 299 298 296 296 294 294 294 298 299 299 296 298 303 305 306 306 307 307 304
311 312 314 316 310 307 301 305 304 295 277 285 294 300 303 303 295 307 310 303 299 295 297 296 299 297 297 296 297 291 298 298 297 294 290 298 287 294 298 301 303 305 306 305 305
310 311 314 316 308 302 303 306 301 290 262 283 292 304 302 297 298 301 308 305 296 294 295 293 296 295 294 295 300 295 300 299 297 294 292 292 289 290 297 296 299 303 306 306 306
309 311 314 313 307 306 307 304 296 276 264 278 294 294 294 295 297 301 302 304 303 297 295 293 298 299 298 300 300 301 298 297 296 294 285 291 290 290 295 295 297 302 305 306 307
308 309 307 311 302 307 306 298 279 271 278 282 285 291 290 291 293 294 295 295 291 286 287 293 293 298 299 294 299 298 293 284 282 282 282 289 288 290 298 294 296 298 299 300 301
307 307 307 307 309 307 302 287 274 273 273 286 287 289 286 289 290 292 291 290 295 293 287 286 284 294 299 296 293 294 293 286 278 279 283 287 285 289 298 301 304 302 302 301 296
306 303 302 305 308 306 292 279 277 275 279 286 287 283 284 287 287 289 290 290 293 293 288 287 287 296 297 298 298 294 290 295 285 279 280 283 284 291 294 294 294 296 296 299 299
299 297 298 304 306 300 286 282 277 281 285 287 280 284 280 283 284 286 288 292 291 295 297 292 287 294 296 297 298 296 296 287 286 279 275 280 281 285 290 294 295 298 295 295 296
296 288 297 304 300 292 281 282 280 281 287 282 280 284 282 283 285 285 285 290 293 293 296 294 290 288 293 292 291 291 290 292 290 286 278 277 282 288 292 295 294 293 293 293 294
287 283 298 301 285 285 283 281 286 285 287 285 283 283 283 284 283 285 285 288 294 296 292 296 288 285 288 292 298 296 293 293 286 282 281 279 284 290 289 290 290 290 291 290 291
285 287 297 297 280 282 285 283 285 285 284 284 284 285 286 287 283 285 288 293 294 295 292 295 286 282 284 288 291 291 294 294 293 287 284 280 285 294 290 288 288 288 290 290 289
287 282 286 289 286 285 282 282 282 286 284 284 284 285 286 286 284 286 287 291 294 295 298 297 288 285 281 284 289 288 291 293 292 286 286 286 288 292 293 291 294 291 289 289 290
286 283 285 281 283 285 285 283 282 282 283 284 283 285 284 283 282 285 288 287 290 295 296 294 285 288 288 286 287 287 290 291 290 290 287 289 289 293 295 295 298 294 291 289 289
284 284 286 284 286 284 285 281 282 281 282 281 282 283 281 283 284 282 287 287 287 291 293 291 284 285 284 288 288 285 286 290 292 292 292 292 291 298 298 298 298 296 291 289 290
289 288 286 286 284 283 280 282 283 283 283 283 283 283 281 282 284 287 286 287 287 288 290 287 285 283 280 285 284 282 286 287 289 293 293 289 293 298 297 298 298 299 298 291 291
Wind_Speed
18 17 17 14 15 15 13 11 8 7 8 6 6 6 5 4 7 2 4 5 4 9 3 2 5 4 4 4 1 5 4 3 4 0 6 8 6 2 3 4 3 5 3 3 10
19 18 18 17 14 15 15 13 10 8 7 7 6 5 4 7 1 7 6 9 7 9 3 5 3 3 3 3 4 7 5 6 2 4 5 8 5 5 2 2 4 2 1 5 11
21 19 17 16 15 13 16 14 10 8 7 6 5 4 5 7 3 6 16 13 8 9 3 2 4 5 2 1 4 4 7 10 7 8 2 5 7 6 2 4 9 11 8 9 8
22 20 19 17 16 14 12 12 12 9 8 6 5 5 6 1 7 2 6 18 10 8 6 6 5 5 5 5 3 2 4 9 7 7 3 6 6 7 7 12 6 11 8 11 14
23 21 20 18 16 15 14 11 10 9 8 8 5 5 5 4 6 2 4 8 7 7 7 6 5 4 5 5 4 1 4 8 10 8 7 3 7 6 10 15 8 4 9 15 15
24 22 21 19 18 15 14 13 11 8 8 10 7 4 2 8 3 3 4 6 7 5 5 6 6 5 4 4 5 3 3 6 3 7 7 6 10 4 5 7 7 6 12 13 16
26 24 22 21 19 17 15 14 12 10 10 11 7 4 5 7 3 4 2 5 6 7 4 2 5 3 6 3 2 1 4 4 6 3 5 7 11 7 12 5 8 9 9 8 13
24 25 24 23 21 19 15 14 11 10 11 11 7 4 5 3 6 2 2 3 4 3 5 7 5 5 1 3 3 1 1 5 5 10 6 8 14 5 6 5 11 10 9 10 11
19 28 27 24 23 20 17 13 10 10 11 9 4 3 5 5 5 4 3 5 4 2 1 5 5 2 3 4 1 5 7 6 6 11 4 7 2 7 7 6 12 10 10 11 11
18 23 27 26 24 21 17 13 9 6 4 3 1 3 3 6 5 6 1 7 3 7 4 3 4 3 4 10 17 9 6 4 5 4 4 6 9 12 13 10 12 9 8 8 12
20 21 28 29 27 25 18 8 6 3 7 6 7 3 4 2 5 3 4 7 4 5 9 6 8 19 21 12 6 12 8 12 3 6 3 11 14 17 14 11 15 13 10 11 13
22 21 27 31 30 28 16 9 13 8 8 13 1 11 3 3 6 6 8 8 8 10 12 6 22 12 6 11 15 15 6 7 2 4 5 10 16 16 15 14 16 17 15 12 11
23 21 25 28 30 24 21 18 8 3 7 7 5 6 4 5 4 13 14 9 6 12 14 8 3 18 10 11 17 21 20 9 7 1 5 9 21 14 16 19 20 18 17 19 19
22 18 26 30 27 20 20 15 6 4 6 5 10 6 5 3 5 6 17 9 7 17 9 11 19 11 16 17 15 20 14 10 9 1 9 3 16 8 7 15 17 21 20 21 20
22 20 30 37 13 20 16 13 5 7 4 7 8 6 9 8 6 7 6 9 12 9 9 6 5 22 16 16 11 7 5 12 9 8 1 8 10 4 6 12 13 19 20 21 23
20 25 30 22 9 20 19 12 4 7 9 5 9 14 13 8 5 7 6 2 2 8 15 10 2 8 7 9 15 1 1 2 3 4 10 14 9 12 12 14 9 13 15 17 20
21 19 20 9 16 25 20 11 8 8 4 11 12 18 21 15 13 8 12 13 10 7 12 10 17 2 6 12 11 15 7 3 3 6 12 9 12 21 15 6 9 11 11 11 10
21 18 15 13 17 23 17 12 9 9 10 5 11 16 21 8 18 15 10 11 17 9 3 13 11 16 6 16 13 18 14 4 6 8 4 2 15 8 12 13 17 16 14 8 10
21 10 9 7 18 18 21 17 13 11 9 14 17 18 14 13 8 14 21 16 10 11 7 12 12 9 9 4 8 5 14 5 4 2 0 5 11 8 13 11 12 18 9 15 13
10 7 7 19 18 12 15 19 6 6 11 11 8 11 16 17 8 19 14 10 15 17 16 2 5 10 9 8 10 7 9 4 3 3 5 8 7 13 12 11 10 16 11 9 11
7 4 6 17 11 7 15 7 6 4 3 7 6 8 8 14 14 16 9 5 16 15 19 7 3 2 5 13 17 7 6 5 3 3 4 8 10 8 15 14 9 8 10 8 10
4 5 10 15 10 5 10 11 6 7 2 5 7 6 9 10 13 12 12 5 7 14 13 6 2 7 19 3 17 16 14 13 7 10 4 3 23 2 9 7 6 11 12 6 9
4 4 7 9 11 9 11 4 5 6 3 4 4 3 2 12 9 7 10 8 6 13 13 10 5 2 2 3 2 10 16 16 17 2 15 7 22 6 6 7 5 8 12 10 7
4 6 5 5 0 14 22 8 9 3 3 2 6 4 8 10 3 15 7 2 8 7 6 12 5 5 6 2 5 10 15 14 16 8 17 15 33 20 12 6 9 7 7 9 7
1 2 4 7 8 12 23 13 15 9 2 5 3 5 10 8 4 7 5 3 4 7 4 6 4 7 12 3 3 1 16 19 19 20 12 32 31 23 18 13 17 8 6 9 10
2 2 2 7 17 16 16 14 16 5 5 6 9 6 3 8 6 7 9 4 4 3 9 4 2 2 2 4 10 7 9 17 26 25 24 31 31 26 13 12 21 15 7 9 11
1 2 3 11 9 13 11 19 13 12 4 3 12 7 8 4 6 8 4 6 4 7 11 7 5 2 3 5 4 6 20 17 17 23 26 26 41 34 19 19 21 23 19 8 10
Wind_Direction
225 225 228 226 219 208 205 207 220 232 235 256 286 299 283 287 128 162 224 224 187 179 92 60 40 6 49 70 282 112 60 322 303 259 280 9 360 343 314 131 234 190 188 292 128
217 222 225 223 222 215 208 206 211 221 223 243 257 289 261 167 170 234 242 263 205 166 143 158 165 82 41 92 315 118 145 206 316 341 320 309 306 305 332 268 269 244 234 107 137
215 213 218 223 219 211 210 204 204 211 209 218 240 247 231 177 264 233 207 226 208 174 164 112 96 115 106 106 201 237 173 180 237 258 285 285 313 307 253 251 230 214 180 161 162
212 210 210 215 216 211 208 210 198 203 206 213 235 243 192 180 220 312 312 204 183 155 126 121 125 148 140 196 164 229 244 179 187 186 260 280 311 302 212 251 317 252 160 164 178
211 207 206 206 213 207 203 200 198 194 197 212 228 241 121 207 250 333 312 195 135 159 159 147 148 142 176 175 107 290 231 221 224 175 224 267 251 239 270 274 278 288 169 180 192
211 204 201 200 204 205 199 195 194 191 201 215 215 244 190 235 110 19 86 130 152 157 174 135 183 168 124 155 192 233 258 286 228 204 184 224 259 52 273 338 261 198 210 195 196
215 204 196 193 195 202 201 192 198 197 199 215 176 138 242 225 75 50 213 173 176 169 141 99 125 136 131 111 199 6 290 258 232 258 228 179 254 213 247 268 250 240 239 224 214
219 208 197 190 189 191 195 187 189 190 193 202 137 80 241 236 129 77 100 26 140 120 134 145 110 90 65 110 68 213 91 247 219 182 237 148 252 257 253 245 258 249 235 235 219
223 215 196 190 184 183 184 186 179 186 197 180 135 166 223 85 149 167 173 137 90 70 57 130 102 124 115 164 156 211 234 226 313 194 142 203 232 217 238 245 256 250 237 231 239
220 215 189 189 180 174 170 166 181 166 145 100 332 164 238 198 164 149 158 142 143 123 106 162 152 184 192 196 216 204 226 225 227 219 228 244 255 255 252 256 253 255 259 242 239
225 216 207 189 177 165 154 126 140 191 203 186 162 223 117 72 86 139 158 128 117 187 181 189 195 216 209 220 243 266 213 231 181 206 174 247 250 257 247 243 251 246 242 242 235
219 221 207 191 173 166 157 182 191 168 171 235 303 197 113 192 165 169 159 169 187 203 188 197 226 223 201 213 237 262 248 232 286 184 208 267 262 250 247 245 233 245 244 238 236
217 217 204 181 176 166 182 183 152 145 122 201 210 205 174 152 208 179 179 181 185 215 209 222 283 205 211 216 219 234 251 246 249 305 235 290 278 244 250 243 242 244 236 241 235
222 219 213 188 184 166 189 180 172 93 87 220 189 234 162 142 260 161 190 190 206 214 222 238 231 190 210 229 219 240 225 250 245 175 271 152 286 250 266 241 222 237 230 231 234
227 225 213 199 173 176 164 162 146 63 118 209 169 168 151 176 131 191 191 197 198 185 168 203 227 205 216 214 212 226 191 206 200 200 312 242 275 264 205 256 241 241 234 225 227
220 216 206 197 153 162 144 135 104 88 233 168 149 174 167 177 179 141 173 256 143 207 230 216 248 189 216 193 209 168 231 159 193 195 244 238 231 260 234 237 235 242 237 223 227
217 216 224 242 176 153 142 155 174 155 275 162 180 185 184 184 197 158 184 197 189 198 221 219 223 185 171 220 212 192 175 229 176 192 238 183 208 247 290 266 233 235 239 227 223
206 213 221 230 134 145 155 171 190 188 205 168 151 181 191 150 206 193 183 214 210 225 200 211 212 190 175 211 212 213 213 219 228 203 258 124 235 237 237 269 257 250 252 253 221
199 203 205 179 142 166 163 187 192 169 174 146 128 162 196 201 159 190 210 210 194 218 204 199 222 174 171 164 152 160 212 179 141 27 206 232 285 277 252 260 262 261 246 251 251
193 187 226 150 133 175 183 161 184 163 131 142 138 170 183 185 167 181 179 217 224 181 226 235 192 198 190 178 210 214 143 167 180 217 248 243 250 245 310 289 246 251 253 259 260
220 152 166 148 138 168 196 184 131 219 132 137 141 142 180 178 184 186 202 202 194 184 182 206 212 168 150 204 192 154 197 209 142 199 221 279 263 208 223 256 279 286 267 265 274
135 180 174 141 164 187 177 155 140 146 251 106 102 114 171 155 174 189 203 192 170 157 181 151 246 187 211 355 216 218 213 196 216 220 261 286 262 185 231 274 320 293 289 284 269
201 117 175 155 183 163 146 91 108 139 161 157 115 141 165 158 172 193 176 180 142 168 172 168 205 150 117 324 310 217 218 220 228 360 228 226 263 214 262 283 290 280 303 310 323
191 138 148 151 298 152 154 140 139 90 119 118 114 94 109 163 335 183 175 143 164 183 142 150 173 209 220 207 134 207 215 218 222 224 249 243 268 265 272 256 293 280 282 307 311
62 171 120 152 166 146 166 145 149 147 209 195 60 175 141 149 109 160 140 127 135 171 151 186 224 222 225 207 11 330 216 217 229 241 234 252 255 258 253 274 297 251 305 304 310
118 147 81 122 143 148 165 174 156 122 138 208 155 135 84 141 177 148 144 154 174 157 183 172 163 171 259 267 241 241 248 228 223 232 239 255 273 247 262 296 292 277 262 277 291
64 323 84 137 141 153 181 169 162 138 50 171 124 111 83 134 123 106 71 95 116 149 176 146 138 126 255 203 176 245 227 226 237 229 225 239 246 264 262 255 258 276 291 243 252